Home   Weather   Cape Dorset   Past weeks

Flag for Canada Past Weather in Cape Dorset, Nunavut, Canada — Yesterday and Last 2 Weeks

Now
9 °F

Light snow. Sunny.


Feels Like: -13 °F
Forecast: 6 / 13 °F
Wind: 25 mph from Northwest

Location: Cape Dorset

Current Time: Apr 29, 2017 at 10:02:11 am

Latest Report: Apr 29, 2017 at 9:39 am


Visibility: 6 mi

Pressure: 29.67 "Hg

Humidity: 78%

Dew Point: 3 °F

Location of Cape DorsetLocation

Past Weather in Cape Dorset — Graph

°F

Cape Dorset Temperature Yesterday

Maximum temperature yesterday: 21 °F (at 8:18 am)
Minimum temperature yesterday: 7 °F (at 11:00 pm)
Average temperature yesterday: 19 °F

High & Low Weather Summary for the Past Weeks

 TemperatureHumidityPressure
High23 °F (Apr 27, 3:00 pm)100% (Apr 28, 7:27 am)30.29 "Hg (Apr 28, 7:27 am)
Low-11 °F (Apr 14, 8:06 am)64% (Apr 14, 7:00 pm)29.58 "Hg (Apr 18, 12:44 pm)
Average8 °F81%30.03 "Hg
* Reported Apr 14 8:06 am — Apr 29 8:20 am, Cape Dorset, Weather by CustomWeather, © 2017

Note: Actual official high and low records may vary slightly from our data, if they occured in-between our weather recording intervals... More about our weather records

Advertising

Cape Dorset Weather History for the Previous 24 Hours

Scroll right to see more
 ConditionsComfort  
Time TempWeatherWind HumidityBarometerVisibility
8:20 am
Sat, Apr 29
7 °FLight snow. Sunny.21 mph78%29.69 "Hg8 mi
8:00 am9 °FSunny.12 mph72%29.72 "Hg9 mi
7:00 am9 °FScattered clouds.17 mph78%29.72 "Hg9 mi
6:41 am9 °FBroken clouds.15 mph78%29.72 "Hg9 mi
6:32 am9 °FPartly sunny.14 mph78%29.72 "Hg9 mi
6:10 am10 °FIce fog.16 mph79%29.72 "Hg5 mi
6:02 am10 °FLight snow. Mostly cloudy.15 mph85%29.72 "Hg3 mi
5:32 am10 °FLight snow. Mostly cloudy.16 mph85%29.72 "Hg2 mi
5:17 am10 °FLight snow. Overcast.18 mph85%29.71 "Hg6 mi
5:03 am12 °FLight snow. Overcast.15 mph85%29.71 "Hg3 mi
4:46 am12 °FLight snow. Overcast.15 mph85%29.71 "Hg2 mi
4:31 am12 °FLight snow. Mostly cloudy.18 mph85%29.70 "Hg3 mi
3:09 am14 °FLight snow. Overcast.14 mph79%29.70 "Hg6 mi
3:01 am14 °FLight snow. Overcast.13 mph79%29.70 "Hg5 mi
2:39 am12 °FLight snow. Overcast.13 mph85%29.70 "Hg9 mi
2:21 am12 °FLight snow. Overcast.10 mph85%29.70 "Hg9 mi
2:00 am12 °FLight snow. Overcast.13 mph85%29.70 "Hg9 mi
1:16 am10 °FLight snow. Passing clouds.13 mph85%29.71 "Hg9 mi
1:00 am9 °FLight snow. Passing clouds.7 mph85%29.72 "Hg8 mi
12:43 am9 °FLight snow. Passing clouds.8 mph92%29.72 "Hg7 mi
12:35 am9 °FLight snow. Passing clouds.10 mph92%29.72 "Hg4 mi
12:20 am9 °FLight snow. Clear.15 mph85%29.72 "Hg9 mi
12:00 am7 °FClear.16 mph85%29.72 "Hg9 mi
11:00 pm
Fri, Apr 28
7 °FClear.7 mph85%29.75 "Hg9 mi
10:00 pm9 °FClear.9 mph78%29.75 "Hg9 mi
9:00 pm10 °FSunny.12 mph85%29.76 "Hg9 mi
8:00 pm19 °FMore clouds than sun.13 mph79%29.75 "Hg9 mi
7:39 pm21 °FBroken clouds.9 mph93%29.75 "Hg9 mi
7:17 pm19 °FLight snow. More clouds than sun.13 mph100%29.75 "Hg9 mi
6:58 pm19 °FLight snow. Low clouds.10 mph100%29.75 "Hg9 mi
6:35 pm21 °FIce fog.12 mph93%29.75 "Hg3 mi
6:00 pm19 °FIce fog.12 mph100%29.77 "Hg1 mi
5:44 pm19 °FIce fog.10 mph100%29.78 "Hg2 mi
5:32 pm19 °FIce fog.12 mph100%29.78 "Hg1 mi
5:02 pm21 °FLow clouds.12 mph93%29.79 "Hg9 mi
4:41 pm21 °FLow clouds.10 mph93%29.79 "Hg15 mi
4:00 pm21 °FOvercast.13 mph86%29.80 "Hg15 mi
3:00 pm21 °FOvercast.10 mph86%29.83 "Hg15 mi
2:00 pm21 °FPartly sunny.9 mph86%29.85 "Hg15 mi
1:12 pm21 °FOvercast.10 mph86%29.87 "Hg15 mi
1:00 pm21 °FLight snow. Low clouds.7 mph86%29.87 "Hg15 mi
12:00 pm21 °FLight snow. Low clouds.12 mph86%29.90 "Hg15 mi
11:35 am21 °FLight snow. Low clouds.9 mph86%29.92 "Hg15 mi
11:00 am21 °FLow clouds.12 mph86%29.93 "Hg15 mi
10:00 am21 °FLow clouds.10 mph86%29.96 "Hg15 mi
Weather by CustomWeather, © 2017

See weather overviewHow to use our weather pages